| time (UTC) | temp F | wind direction | speed MPH | gust MPH | rain 1hr in | rain 24hr in | rain mn in | humidity % | barometer mb |
| 20260904155828 | 95 | 303 | 1.0 | 3.0 | 0.00 | 0.00 | 0.00 | 48 | 1013.9 |
| 20260904154821 | 94 | 303 | 1.0 | 5.0 | 0.00 | 0.00 | 0.00 | 49 | 1013.8 |
| 20260904153813 | 94 | 303 | 0.0 | 5.0 | 0.00 | 0.00 | 0.00 | 50 | 1013.7 |
| 20260904152825 | 93 | 303 | 1.0 | 4.0 | 0.00 | 0.00 | 0.00 | 51 | 1013.6 |
| 20260904151824 | 93 | 303 | 1.0 | 6.0 | 0.00 | 0.00 | 0.00 | 50 | 1013.6 |
| 20260904150815 | 93 | 303 | 1.0 | 5.0 | 0.00 | 0.00 | 0.00 | 52 | 1013.5 |
| 20260904145848 | 92 | 303 | 0.0 | 3.0 | 0.00 | 0.00 | 0.00 | 54 | 1013.5 |
| 20260904144820 | 90 | 303 | 1.0 | 4.0 | 0.00 | 0.00 | 0.00 | 55 | 1013.5 |
| 20260904143813 | 90 | 303 | 1.0 | 3.0 | 0.00 | 0.00 | 0.00 | 55 | 1013.5 |
| 20260904142830 | 90 | 303 | 1.0 | 4.0 | 0.00 | 0.00 | 0.00 | 56 | 1013.3 |
| 20260904141823 | 89 | 303 | 1.0 | 2.0 | 0.00 | 0.00 | 0.00 | 57 | 1013.2 |
| 20260904140814 | 87 | 303 | 0.0 | 2.0 | 0.00 | 0.00 | 0.00 | 60 | 1013.2 |
| 20260904135828 | 86 | 303 | 0.0 | 4.0 | 0.00 | 0.00 | 0.00 | 62 | 1012.9 |
| 20260904134820 | 85 | 303 | 0.0 | 2.0 | 0.00 | 0.00 | 0.00 | 63 | 1012.9 |
| 20260904133837 | 84 | 303 | 0.0 | 2.0 | 0.00 | 0.00 | 0.00 | 64 | 1012.7 |
| 20260904132848 | 84 | 303 | 0.0 | 1.0 | 0.00 | 0.00 | 0.00 | 64 | 1012.6 |
| 20260904131841 | 84 | 303 | 0.0 | 2.0 | 0.00 | 0.00 | 0.00 | 64 | 1012.4 |
| 20260904130814 | 84 | 303 | 0.0 | 3.0 | 0.00 | 0.00 | 0.00 | 64 | 1012.2 |
| 20260904125828 | 84 | 303 | 1.0 | 2.0 | 0.00 | 0.00 | 0.00 | 63 | 1012.1 |
| 20260904124823 | 84 | 303 | 0.0 | 4.0 | 0.00 | 0.00 | 0.00 | 63 | 1012.0 |
| 20260904123839 | 84 | 303 | 0.0 | 2.0 | 0.00 | 0.00 | 0.00 | 63 | 1011.8 |
| 20260904122813 | 84 | 303 | 0.0 | 2.0 | 0.00 | 0.00 | 0.00 | 62 | 1011.8 |
| 20260904121825 | 84 | 303 | 0.0 | 1.0 | 0.00 | 0.00 | 0.00 | 62 | 1011.7 |
| 20260904120819 | 84 | 303 | 0.0 | 2.0 | 0.00 | 0.00 | 0.00 | 62 | 1011.6 |
| 20260904115813 | 84 | 303 | 0.0 | 2.0 | 0.00 | 0.00 | 0.00 | 62 | 1011.7 |
| 20260904114814 | 84 | 303 | 0.0 | 2.0 | 0.00 | 0.00 | 0.00 | 61 | 1011.6 |
| 20260904113851 | 84 | 303 | 0.0 | 2.0 | 0.00 | 0.00 | 0.00 | 61 | 1011.6 |
| 20260904112843 | 84 | 303 | 0.0 | 1.0 | 0.00 | 0.00 | 0.00 | 61 | 1011.6 |
| 20260904111816 | 84 | 303 | 0.0 | 1.0 | 0.00 | 0.00 | 0.00 | 61 | 1011.6 |
| 20260904110830 | 84 | 303 | 0.0 | 1.0 | 0.00 | 0.00 | 0.00 | 61 | 1011.7 |
| 20260904105845 | 84 | 303 | 0.0 | 1.0 | 0.00 | 0.00 | 0.00 | 60 | 1011.6 |
| 20260904104823 | 84 | 303 | 0.0 | 1.0 | 0.00 | 0.00 | 0.00 | 60 | 1011.5 |
| 20260904103819 | 85 | 303 | 0.0 | 1.0 | 0.00 | 0.00 | 0.00 | 60 | 1011.4 |
| 20260904102813 | 85 | 303 | 0.0 | 0.0 | 0.00 | 0.00 | 0.00 | 60 | 1011.4 |
| 20260904101826 | 85 | 303 | 0.0 | 1.0 | 0.00 | 0.00 | 0.00 | 59 | 1011.4 |
| 20260904100821 | 85 | 303 | 0.0 | 1.0 | 0.00 | 0.00 | 0.00 | 59 | 1011.3 |
| 20260904095819 | 85 | 303 | 0.0 | 1.0 | 0.00 | 0.00 | 0.00 | 59 | 1011.3 |
| 20260904094816 | 85 | 303 | 0.0 | 2.0 | 0.00 | 0.00 | 0.00 | 58 | 1011.2 |
| 20260904093832 | 85 | 303 | 0.0 | 1.0 | 0.00 | 0.00 | 0.00 | 58 | 1011.2 |
| 20260904092825 | 85 | 303 | 0.0 | 1.0 | 0.00 | 0.00 | 0.00 | 58 | 1011.1 |
| 20260904091821 | 85 | 303 | 0.0 | 0.0 | 0.00 | 0.00 | 0.00 | 59 | 1011.1 |
| 20260904090819 | 85 | 303 | 0.0 | 0.0 | 0.00 | 0.00 | 0.00 | 58 | 1011.1 |
| 20260904085832 | 85 | 303 | 0.0 | 0.0 | 0.00 | 0.00 | 0.00 | 57 | 1011.2 |
| 20260904084826 | 86 | 303 | 0.0 | 0.0 | 0.00 | 0.00 | 0.00 | 57 | 1011.1 |
| 20260904083822 | 86 | 303 | 0.0 | 0.0 | 0.00 | 0.00 | 0.00 | 57 | 1011.1 |
| 20260904082818 | 86 | 303 | 1.0 | 2.0 | 0.00 | 0.00 | 0.00 | 56 | 1011.2 |
| 20260904081836 | 86 | 303 | 0.0 | 3.0 | 0.00 | 0.00 | 0.00 | 56 | 1011.4 |
| 20260904080831 | 86 | 303 | 0.0 | 3.0 | 0.00 | 0.00 | 0.00 | 56 | 1011.3 |
| 20260904075826 | 87 | 303 | 0.0 | 2.0 | 0.00 | 0.00 | 0.00 | 56 | 1011.2 |
| 20260904074821 | 87 | 303 | 0.0 | 3.0 | 0.00 | 0.00 | 0.00 | 56 | 1011.3 |
| 20260904073814 | 87 | 303 | 0.0 | 3.0 | 0.00 | 0.00 | 0.00 | 55 | 1011.2 |
| 20260904072832 | 87 | 303 | 0.0 | 3.0 | 0.00 | 0.00 | 0.00 | 55 | 1011.2 |
| 20260904071826 | 88 | 303 | 0.0 | 3.0 | 0.00 | 0.00 | 0.00 | 54 | 1011.1 |
| 20260904070819 | 88 | 303 | 0.0 | 2.0 | 0.00 | 0.00 | 0.00 | 54 | 1011.1 |
| 20260904065852 | 88 | 303 | 0.0 | 1.0 | 0.00 | 0.00 | 0.00 | 53 | 1010.9 |
| 20260904064823 | 88 | 303 | 1.0 | 4.0 | 0.00 | 0.00 | 0.00 | 53 | 1010.8 |
| 20260904063818 | 89 | 303 | 0.0 | 4.0 | 0.00 | 0.00 | 0.00 | 53 | 1010.8 |
| 20260904062851 | 89 | 303 | 0.0 | 4.0 | 0.00 | 0.00 | 0.00 | 52 | 1010.7 |
| 20260904061822 | 89 | 303 | 0.0 | 5.0 | 0.00 | 0.00 | 0.00 | 51 | 1010.6 |
| 20260904060835 | 90 | 303 | 1.0 | 4.0 | 0.00 | 0.00 | 0.00 | 51 | 1010.6 |
| 20260904055827 | 90 | 303 | 1.0 | 3.0 | 0.00 | 0.00 | 0.00 | 50 | 1010.5 |
| 20260904054820 | 90 | 303 | 0.0 | 1.0 | 0.00 | 0.00 | 0.00 | 49 | 1010.6 |
| 20260904053817 | 90 | 303 | 0.0 | 3.0 | 0.00 | 0.00 | 0.00 | 48 | 1010.5 |
| 20260904052829 | 90 | 303 | 0.0 | 0.0 | 0.00 | 0.00 | 0.00 | 47 | 1010.5 |
| 20260904051821 | 91 | 303 | 0.0 | 1.0 | 0.00 | 0.00 | 0.00 | 47 | 1010.4 |
| 20260904050815 | 91 | 303 | 0.0 | 2.0 | 0.00 | 0.00 | 0.00 | 46 | 1010.3 |
| 20260904045828 | 91 | 303 | 1.0 | 3.0 | 0.00 | 0.00 | 0.00 | 45 | 1010.3 |
| 20260904044827 | 92 | 303 | 0.0 | 2.0 | 0.00 | 0.00 | 0.00 | 45 | 1010.2 |
| 20260904043819 | 92 | 303 | 1.0 | 4.0 | 0.00 | 0.00 | 0.00 | 44 | 1010.3 |
| 20260904042830 | 91 | 303 | 0.0 | 3.0 | 0.00 | 0.00 | 0.00 | 43 | 1010.3 |
| 20260904041823 | 91 | 303 | 0.0 | 1.0 | 0.00 | 0.00 | 0.00 | 44 | 1010.2 |
| 20260904040836 | 91 | 303 | 0.0 | 2.0 | 0.00 | 0.00 | 0.00 | 45 | 1010.1 |
| 20260904035829 | 91 | 303 | 0.0 | 2.0 | 0.00 | 0.00 | 0.00 | 45 | 1010.1 |
| 20260904034843 | 91 | 303 | 0.0 | 3.0 | 0.00 | 0.00 | 0.00 | 45 | 1009.9 |
| 20260904033815 | 91 | 303 | 0.0 | 2.0 | 0.00 | 0.00 | 0.00 | 44 | 1009.7 |
| 20260904032828 | 91 | 303 | 0.0 | 2.0 | 0.00 | 0.00 | 0.00 | 44 | 1009.5 |
| 20260904031821 | 91 | 303 | 0.0 | 2.0 | 0.00 | 0.00 | 0.00 | 44 | 1009.3 |
| 20260904030817 | 91 | 303 | 0.0 | 3.0 | 0.00 | 0.00 | 0.00 | 45 | 1009.2 |
| 20260904025829 | 91 | 303 | 2.0 | 5.0 | 0.00 | 0.00 | 0.00 | 45 | 1009.1 |
| 20260904024843 | 92 | 303 | 1.0 | 4.0 | 0.00 | 0.00 | 0.00 | 45 | 1009.1 |
| 20260904023815 | 92 | 303 | 2.0 | 4.0 | 0.00 | 0.00 | 0.00 | 44 | 1008.9 |
| 20260904022830 | 92 | 303 | 1.0 | 6.0 | 0.00 | 0.00 | 0.00 | 43 | 1008.9 |
| 20260904021843 | 92 | 303 | 1.0 | 3.0 | 0.00 | 0.00 | 0.00 | 44 | 1008.8 |
| 20260904020819 | 93 | 303 | 1.0 | 3.0 | 0.00 | 0.00 | 0.00 | 44 | 1008.9 |
| 20260904015829 | 93 | 303 | 0.0 | 2.0 | 0.00 | 0.00 | 0.00 | 43 | 1009.0 |
| 20260904014844 | 93 | 303 | 0.0 | 2.0 | 0.00 | 0.00 | 0.00 | 42 | 1009.0 |
| 20260904013834 | 94 | 303 | 1.0 | 5.0 | 0.00 | 0.00 | 0.00 | 41 | 1008.8 |
| 20260904012825 | 95 | 303 | 2.0 | 9.0 | 0.00 | 0.00 | 0.00 | 39 | 1008.8 |
| 20260904011818 | 97 | 303 | 2.0 | 11.0 | 0.00 | 0.00 | 0.00 | 36 | 1008.7 |
| 20260904010814 | 100 | 303 | 1.0 | 4.0 | 0.00 | 0.00 | 0.00 | 33 | 1008.6 |
| 20260904005847 | 100 | 303 | 1.0 | 4.0 | 0.00 | 0.00 | 0.00 | 32 | 1008.4 |
| 20260904004821 | 101 | 303 | 1.0 | 4.0 | 0.00 | 0.00 | 0.00 | 31 | 1008.5 |
| 20260904003814 | 102 | 303 | 2.0 | 6.0 | 0.00 | 0.00 | 0.00 | 30 | 1008.5 |
| 20260904002847 | 103 | 303 | 1.0 | 3.0 | 0.00 | 0.00 | 0.00 | 29 | 1008.5 |
| 20260904001824 | 103 | 303 | 0.0 | 6.0 | 0.00 | 0.00 | 0.00 | 30 | 1008.4 |
| 20260904000816 | 102 | 303 | 2.0 | 5.0 | 0.00 | 0.00 | 0.00 | 30 | 1008.5 |
| 20260903235847 | 101 | 303 | 1.0 | 2.0 | 0.00 | 0.00 | 0.00 | 30 | 1008.5 |
| 20260903234819 | 102 | 303 | 1.0 | 4.0 | 0.00 | 0.00 | 0.00 | 29 | 1008.7 |
| 20260903233812 | 103 | 303 | 1.0 | 3.0 | 0.00 | 0.00 | 0.00 | 30 | 1008.8 |
| 20260903232825 | 102 | 303 | 2.0 | 4.0 | 0.00 | 0.00 | 0.00 | 30 | 1008.8 |
| 20260903231821 | 102 | 303 | 1.0 | 4.0 | 0.00 | 0.00 | 0.00 | 30 | 1008.8 |
| 20260903230812 | 102 | 303 | 2.0 | 3.0 | 0.00 | 0.00 | 0.00 | 29 | 1008.9 |
| 20260903225844 | 101 | 303 | 1.0 | 5.0 | 0.00 | 0.00 | 0.00 | 30 | 1009.1 |
| 20260903224837 | 101 | 303 | 1.0 | 5.0 | 0.00 | 0.00 | 0.00 | 30 | 1009.3 |
| 20260903223848 | 102 | 303 | 0.0 | 3.0 | 0.00 | 0.00 | 0.00 | 31 | 1009.3 |
| 20260903222820 | 102 | 303 | 2.0 | 6.0 | 0.00 | 0.00 | 0.00 | 30 | 1009.5 |
| 20260903221814 | 102 | 303 | 2.0 | 4.0 | 0.00 | 0.00 | 0.00 | 30 | 1009.6 |
| 20260903220826 | 104 | 303 | 1.0 | 5.0 | 0.00 | 0.00 | 0.00 | 30 | 1009.7 |
| 20260903215818 | 103 | 303 | 0.0 | 6.0 | 0.00 | 0.00 | 0.00 | 30 | 1009.9 |
| 20260903214852 | 104 | 303 | 1.0 | 3.0 | 0.00 | 0.00 | 0.00 | 29 | 1009.9 |
| 20260903213823 | 104 | 303 | 1.0 | 5.0 | 0.00 | 0.00 | 0.00 | 29 | 1010.1 |
| 20260903212819 | 103 | 303 | 0.0 | 3.0 | 0.00 | 0.00 | 0.00 | 29 | 1010.4 |
| 20260903211814 | 103 | 303 | 0.0 | 5.0 | 0.00 | 0.00 | 0.00 | 30 | 1010.6 |
| 20260903210825 | 104 | 303 | 1.0 | 8.0 | 0.00 | 0.00 | 0.00 | 29 | 1010.7 |
| 20260903205818 | 103 | 303 | 1.0 | 4.0 | 0.00 | 0.00 | 0.00 | 30 | 1010.8 |
| 20260903204852 | 102 | 303 | 2.0 | 8.0 | 0.00 | 0.00 | 0.00 | 31 | 1011.1 |
| 20260903203822 | 103 | 303 | 1.0 | 4.0 | 0.00 | 0.00 | 0.00 | 29 | 1011.2 |
| 20260903202821 | 102 | 303 | 2.0 | 8.0 | 0.00 | 0.00 | 0.00 | 30 | 1011.4 |
| 20260903201853 | 102 | 303 | 1.0 | 5.0 | 0.00 | 0.00 | 0.00 | 29 | 1011.4 |
| 20260903200824 | 100 | 303 | 3.0 | 8.0 | 0.00 | 0.00 | 0.00 | 30 | 1011.6 |
| 20260903195817 | 102 | 303 | 1.0 | 5.0 | 0.00 | 0.00 | 0.00 | 33 | 1011.7 |
| 20260903194831 | 100 | 303 | 2.0 | 8.0 | 0.00 | 0.00 | 0.00 | 32 | 1011.8 |
| 20260903193843 | 100 | 303 | 2.0 | 5.0 | 0.00 | 0.00 | 0.00 | 32 | 1011.9 |
| 20260903192818 | 100 | 303 | 1.0 | 4.0 | 0.00 | 0.00 | 0.00 | 32 | 1012.0 |
| 20260903191832 | 101 | 303 | 1.0 | 4.0 | 0.00 | 0.00 | 0.00 | 32 | 1012.3 |
| 20260903190825 | 100 | 303 | 1.0 | 6.0 | 0.00 | 0.00 | 0.00 | 34 | 1012.5 |
| 20260903185818 | 100 | 303 | 2.0 | 9.0 | 0.00 | 0.00 | 0.00 | 33 | 1012.6 |
| 20260903184816 | 99 | 303 | 2.0 | 5.0 | 0.00 | 0.00 | 0.00 | 36 | 1012.7 |
| 20260903183830 | 100 | 303 | 1.0 | 5.0 | 0.00 | 0.00 | 0.00 | 36 | 1013.0 |
| 20260903182823 | 99 | 303 | 1.0 | 3.0 | 0.00 | 0.00 | 0.00 | 36 | 1013.2 |
| 20260903181817 | 99 | 303 | 0.0 | 3.0 | 0.00 | 0.00 | 0.00 | 36 | 1013.3 |
| 20260903180849 | 98 | 303 | 2.0 | 6.0 | 0.00 | 0.00 | 0.00 | 37 | 1013.5 |
| 20260903175821 | 98 | 303 | 1.0 | 6.0 | 0.00 | 0.00 | 0.00 | 38 | 1013.6 |
| 20260903174818 | 99 | 303 | 0.0 | 5.0 | 0.00 | 0.00 | 0.00 | 36 | 1013.7 |
| 20260903173830 | 98 | 303 | 1.0 | 5.0 | 0.00 | 0.00 | 0.00 | 39 | 1013.8 |
| 20260903172824 | 96 | 303 | 2.0 | 5.0 | 0.00 | 0.00 | 0.00 | 39 | 1013.9 |
| 20260903171817 | 97 | 303 | 2.0 | 5.0 | 0.00 | 0.00 | 0.00 | 39 | 1013.8 |
| 20260903170813 | 98 | 303 | 2.0 | 5.0 | 0.00 | 0.00 | 0.00 | 39 | 1013.9 |
| 20260903165824 | 97 | 303 | 1.0 | 4.0 | 0.00 | 0.00 | 0.00 | 40 | 1013.9 |
| 20260903164818 | 94 | 303 | 1.0 | 9.0 | 0.00 | 0.00 | 0.00 | 43 | 1013.9 |
| 20260903163832 | 95 | 303 | 2.0 | 6.0 | 0.00 | 0.00 | 0.00 | 42 | 1014.0 |
| 20260903162824 | 95 | 303 | 2.0 | 5.0 | 0.00 | 0.00 | 0.00 | 43 | 1014.0 |
| 20260903161819 | 94 | 303 | 0.0 | 3.0 | 0.00 | 0.00 | 0.00 | 45 | 1014.0 |
| 20260903160852 | 94 | 303 | 1.0 | 3.0 | 0.00 | 0.00 | 0.00 | 45 | 1014.1 |